^^
Grace C. Lehan Memorial Weather Station Historical Data
Daily Summary for February 5, 2021 Units:  Metric    English   Both
Daily Weekly Monthly Yearly
  High: Low: Average:
Temperature: 16.3 °C 11.9 °C 13.9 °C
Dew Point: 14.3 °C 11.5 °C 12.9 °C
Humidity: 98.4% 86% 94%
Wind Speed: 3.7km/h 0km/h 0.5km/h
Wind Gust: 16.1km/h - -
Wind- - SE
Pressure: 1027 hPa 1019.2 hPa -
Precipitation: 2.54 mm    
 
 
Tabular Data for February 5, 2021
Time Temperature Dew Point Pressure Wind Wind Speed Wind Gust Humidity Rainfall Rate (Hourly) solar
00:09 13.6 °C 13.1 °C 1019.2 hPa North 1.1 km/h 6.4 km/h 97% 8.13 mm 0 W/m2
00:14 13.6 °C 13.1 °C 1019.2 hPa North 0.5 km/h 6.4 km/h 97% 8.13 mm 0 W/m2
00:19 13.6 °C 13.1 °C 1019.2 hPa North 0.5 km/h 9.7 km/h 97% 8.38 mm 0 W/m2
00:24 13.6 °C 13.1 °C 1019.2 hPa North 0.6 km/h 9.7 km/h 97% 8.38 mm 0 W/m2
00:29 13.6 °C 13.1 °C 1019.2 hPa NNE 1 km/h 9.7 km/h 97% 8.38 mm 0 W/m2
00:34 13.6 °C 13.1 °C 1019.2 hPa NE 0.5 km/h 9.7 km/h 97% 8.38 mm 0 W/m2
00:39 13.6 °C 13.1 °C 1019.2 hPa ENE 0.2 km/h 6.4 km/h 97% 3.56 mm 0 W/m2
00:44 13.6 °C 13.1 °C 1019.2 hPa NNE 0.6 km/h 6.4 km/h 97% 3.81 mm 0 W/m2
00:49 13.6 °C 13.1 °C 1019.2 hPa NE 0.2 km/h 6.4 km/h 97% 4.06 mm 0 W/m2
00:54 13.6 °C 13.1 °C 1019.2 hPa North 0.5 km/h 6.4 km/h 97% 4.06 mm 0 W/m2
00:59 13.6 °C 13.1 °C 1019.2 hPa NNW 1 km/h 11.3 km/h 97% 4.32 mm 0 W/m2
01:04 13.6 °C 13.1 °C 1019.2 hPa NNE 0.8 km/h 11.3 km/h 97% 4.32 mm 0 W/m2
01:09 13.6 °C 13.1 °C 1019.5 hPa Calm   8 km/h 97% 1.52 mm 0 W/m2
01:14 13.6 °C 13.1 °C 1019.5 hPa Calm   8 km/h 97% 1.52 mm 0 W/m2
01:19 13.5 °C 13.1 °C 1019.5 hPa Calm   8 km/h 97% 1.52 mm 0 W/m2
01:24 13.4 °C 13 °C 1019.5 hPa NE 0.6 km/h 8 km/h 97% 1.52 mm 0 W/m2
01:29 13.4 °C 13 °C 1019.5 hPa Calm   8 km/h 97% 1.52 mm 0 W/m2
01:34 13.4 °C 12.9 °C 1019.5 hPa North 0.8 km/h 8 km/h 97% 1.52 mm 0 W/m2
01:39 13.4 °C 12.9 °C 1019.5 hPa North 0.8 km/h 11.3 km/h 97% 1.52 mm 0 W/m2
01:44 13.3 °C 12.8 °C 1019.5 hPa NNE 0.3 km/h 11.3 km/h 97% 1.52 mm 0 W/m2
01:49 13.3 °C 12.8 °C 1019.9 hPa NNE 0.3 km/h 11.3 km/h 97% 1.52 mm 0 W/m2
01:54 13.2 °C 12.8 °C 1019.9 hPa North 1 km/h 11.3 km/h 97% 1.52 mm 0 W/m2
01:59 13.2 °C 12.8 °C 1019.9 hPa NE 0.3 km/h 11.3 km/h 97% 1.52 mm 0 W/m2
02:04 13.2 °C 12.8 °C 1019.9 hPa Calm   11.3 km/h 97% 1.52 mm 0 W/m2
02:09 13.2 °C 12.7 °C 1019.9 hPa Calm   3.2 km/h 97% 0 mm 0 W/m2
02:14 13.2 °C 12.7 °C 1019.9 hPa North 0.5 km/h 9.7 km/h 97% 0 mm 0 W/m2
02:19 13.1 °C 12.7 °C 1019.9 hPa Calm   9.7 km/h 97% 0 mm 0 W/m2
02:24 13.1 °C 12.6 °C 1019.9 hPa NNE 0.6 km/h 9.7 km/h 97% 0 mm 0 W/m2
02:29 13.1 °C 12.6 °C 1019.9 hPa ENE 1.6 km/h 11.3 km/h 97% 0 mm 0 W/m2
02:34 12.9 °C 12.5 °C 1019.9 hPa NNE 0.3 km/h 11.3 km/h 97% 0 mm 0 W/m2
02:39 12.9 °C 12.4 °C 1019.9 hPa NNE 1.3 km/h 9.7 km/h 97% 0 mm 0 W/m2
02:44 12.9 °C 12.4 °C 1019.9 hPa NNE 0.6 km/h 9.7 km/h 97% 0 mm 0 W/m2
02:49 12.8 °C 12.4 °C 1019.9 hPa NW 0.6 km/h 9.7 km/h 97% 0 mm 0 W/m2
02:54 12.8 °C 12.4 °C 1019.9 hPa North 0.2 km/h 9.7 km/h 97% 0.25 mm 0 W/m2
02:59 12.8 °C 12.3 °C 1019.9 hPa ESE 0.8 km/h 9.7 km/h 97% 0.25 mm 0 W/m2
03:04 12.8 °C 12.3 °C 1019.9 hPa Calm   9.7 km/h 97% 0.25 mm 0 W/m2
03:09 12.8 °C 12.3 °C 1019.9 hPa East 0.6 km/h 6.4 km/h 97% 0.25 mm 0 W/m2
03:14 12.7 °C 12.2 °C 1019.9 hPa NE 0.5 km/h 6.4 km/h 97% 0.25 mm 0 W/m2
03:19 12.7 °C 12.2 °C 1019.9 hPa North 0.3 km/h 6.4 km/h 97% 0.25 mm 0 W/m2
03:24 12.7 °C 12.2 °C 1019.9 hPa ENE 1 km/h 9.7 km/h 97% 0.25 mm 0 W/m2
03:29 12.6 °C 12.2 °C 1019.9 hPa ENE 1.1 km/h 9.7 km/h 97% 0.25 mm 0 W/m2
03:34 12.6 °C 12.1 °C 1019.9 hPa NNE 0.3 km/h 9.7 km/h 97% 0.25 mm 0 W/m2
03:39 12.6 °C 12.1 °C 1019.9 hPa NW 1.9 km/h 11.3 km/h 97% 0.25 mm 0 W/m2
03:44 12.5 °C 12.1 °C 1019.9 hPa NW 0.8 km/h 11.3 km/h 97% 0.25 mm 0 W/m2
03:49 12.5 °C 12 °C 1020.2 hPa NNW 0.5 km/h 11.3 km/h 97% 0.25 mm 0 W/m2
03:54 12.4 °C 12 °C 1020.2 hPa North 0.6 km/h 11.3 km/h 97% 0.25 mm 0 W/m2
03:59 12.4 °C 12 °C 1020.2 hPa NNE 0.3 km/h 11.3 km/h 97% 0.25 mm 0 W/m2
04:00 12.4 °C 12 °C 1020.2 hPa Calm   11.3 km/h 97% 0.25 mm 0 W/m2
04:09 12.4 °C 11.9 °C 1020.2 hPa NNE 1 km/h 6.4 km/h 97% 0 mm 0 W/m2
04:14 12.3 °C 11.9 °C 1020.2 hPa North 1.1 km/h 9.7 km/h 97% 0 mm 0 W/m2
04:19 12.3 °C 11.8 °C 1020.5 hPa North 0.5 km/h 9.7 km/h 97% 0 mm 0 W/m2
04:24 12.3 °C 11.8 °C 1020.5 hPa North 0.8 km/h 9.7 km/h 97% 0 mm 0 W/m2
04:29 12.2 °C 11.8 °C 1020.9 hPa North 0.5 km/h 11.3 km/h 97% 0 mm 0 W/m2
04:34 12.2 °C 11.8 °C 1020.9 hPa NNE 1.1 km/h 11.3 km/h 97% 0 mm 0 W/m2
04:39 12.2 °C 11.8 °C 1020.5 hPa NNE 0.2 km/h 6.4 km/h 97% 0 mm 0 W/m2
04:44 12.2 °C 11.8 °C 1020.5 hPa North 0.8 km/h 11.3 km/h 97% 0 mm 0 W/m2
04:49 12.2 °C 11.7 °C 1020.5 hPa Calm   11.3 km/h 97% 0 mm 0 W/m2
04:54 12.2 °C 11.7 °C 1020.5 hPa NE 0.5 km/h 11.3 km/h 97% 0 mm 0 W/m2
04:59 12.1 °C 11.7 °C 1020.5 hPa Calm   11.3 km/h 97% 0 mm 0 W/m2
05:04 12.1 °C 11.7 °C 1020.5 hPa Calm   11.3 km/h 97% 0 mm 0 W/m2
05:09 12.1 °C 11.7 °C 1020.5 hPa North 1.9 km/h 11.3 km/h 97% 0 mm 0 W/m2
05:14 12.1 °C 11.6 °C 1020.5 hPa North 1.3 km/h 11.3 km/h 97% 0 mm 0 W/m2
05:19 12.1 °C 11.6 °C 1020.5 hPa North 1.3 km/h 11.3 km/h 97% 0 mm 0 W/m2
05:24 12 °C 11.6 °C 1020.5 hPa NNE 1.6 km/h 11.3 km/h 97% 0 mm 0 W/m2
05:29 11.9 °C 11.5 °C 1020.5 hPa ENE 1.1 km/h 11.3 km/h 97% 0 mm 0 W/m2
05:34 11.9 °C 11.5 °C 1020.2 hPa ENE 0.2 km/h 11.3 km/h 97% 0 mm 0 W/m2
05:39 11.9 °C 11.5 °C 1020.5 hPa Calm   3.2 km/h 97% 0 mm 0 W/m2
05:44 11.9 °C 11.5 °C 1020.9 hPa Calm   3.2 km/h 97% 0 mm 0 W/m2
05:49 11.9 °C 11.5 °C 1020.9 hPa North 0.6 km/h 11.3 km/h 97% 0 mm 0 W/m2
05:54 12 °C 11.5 °C 1020.9 hPa North 0.2 km/h 11.3 km/h 97% 0 mm 0 W/m2
05:59 12 °C 11.6 °C 1021.2 hPa Calm   11.3 km/h 97% 0 mm 0 W/m2
06:04 12 °C 11.6 °C 1021.2 hPa Calm   11.3 km/h 97% 0 mm 0 W/m2
06:09 12.1 °C 11.6 °C 1021.2 hPa Calm     97% 0 mm 0 W/m2
06:14 12.1 °C 11.6 °C 1021.2 hPa Calm     97% 0 mm 0 W/m2
06:19 12.1 °C 11.7 °C 1021.2 hPa Calm     97% 0 mm 0 W/m2
06:24 12.1 °C 11.7 °C 1021.6 hPa Calm     97% 0 mm 0 W/m2
06:29 12.1 °C 11.6 °C 1021.6 hPa Calm   1.6 km/h 97% 0 mm 0 W/m2
06:34 12.1 °C 11.6 °C 1021.6 hPa Calm   1.6 km/h 97% 0 mm 0 W/m2
06:39 12.1 °C 11.6 °C 1021.2 hPa NNE 0.2 km/h 3.2 km/h 97% 0 mm 0 W/m2
06:44 12.1 °C 11.6 °C 1021.6 hPa Calm   3.2 km/h 97% 0 mm 0 W/m2
06:49 12.1 °C 11.6 °C 1021.6 hPa NNE 0.6 km/h 9.7 km/h 97% 0 mm 0 W/m2
06:54 12.1 °C 11.6 °C 1021.9 hPa Calm   9.7 km/h 97% 0 mm 0 W/m2
06:59 12.1 °C 11.6 °C 1021.9 hPa NNE 0.3 km/h 9.7 km/h 97% 0 mm 0 W/m2
07:04 12.1 °C 11.7 °C 1021.9 hPa NNE 0.2 km/h 9.7 km/h 97% 0 mm 0 W/m2
07:09 12.1 °C 11.6 °C 1021.9 hPa Calm   4.8 km/h 97% 0 mm 7 W/m2
07:14 12.1 °C 11.6 °C 1021.9 hPa ENE 0.2 km/h 6.4 km/h 97% 0 mm 7 W/m2
07:19 12.1 °C 11.6 °C 1021.9 hPa NNW 1 km/h 11.3 km/h 97% 0 mm 7 W/m2
07:24 12.1 °C 11.6 °C 1021.9 hPa Calm   11.3 km/h 97% 0 mm 7 W/m2
07:29 12.1 °C 11.6 °C 1021.9 hPa NNE 0.8 km/h 11.3 km/h 97% 0 mm 11 W/m2
07:34 12.1 °C 11.6 °C 1022.2 hPa Calm   11.3 km/h 97% 0 mm 16 W/m2
07:39 12.1 °C 11.6 °C 1022.2 hPa NNE 0.2 km/h 4.8 km/h 97% 0 mm 16 W/m2
07:44 12.1 °C 11.6 °C 1022.2 hPa NE 0.6 km/h 6.4 km/h 97% 0 mm 16 W/m2
07:49 12.1 °C 11.6 °C 1022.2 hPa Calm   6.4 km/h 97% 0 mm 16 W/m2
07:54 12.1 °C 11.6 °C 1022.6 hPa NE 0.2 km/h 6.4 km/h 97% 0 mm 16 W/m2
07:59 12.1 °C 11.6 °C 1022.6 hPa Calm   6.4 km/h 97% 0 mm 19 W/m2
08:00 12.1 °C 11.6 °C 1022.6 hPa Calm   6.4 km/h 97% 0 mm 19 W/m2
08:09 12 °C 11.6 °C 1022.6 hPa NE 0.2 km/h 3.2 km/h 97% 0 mm 26 W/m2
08:14 12 °C 11.6 °C 1022.6 hPa East 0.2 km/h 4.8 km/h 97% 0 mm 26 W/m2
08:19 12 °C 11.6 °C 1022.6 hPa NE 0.5 km/h 4.8 km/h 97% 0 mm 35 W/m2
08:24 12.1 °C 11.6 °C 1022.6 hPa North 1.3 km/h 9.7 km/h 97% 0 mm 56 W/m2
08:29 12.1 °C 11.6 °C 1022.6 hPa North 0.8 km/h 9.7 km/h 97% 0 mm 56 W/m2
08:34 12.2 °C 11.7 °C 1022.9 hPa Calm   9.7 km/h 97% 0 mm 54 W/m2
08:39 12.2 °C 11.7 °C 1022.9 hPa NNE 0.8 km/h 8 km/h 97% 0 mm 44 W/m2
08:44 12.2 °C 11.7 °C 1022.9 hPa NNE 0.8 km/h 8 km/h 97% 0 mm 53 W/m2
08:49 12.2 °C 11.8 °C 1022.9 hPa NNE 0.3 km/h 8 km/h 97% 0 mm 67 W/m2
08:54 12.2 °C 11.8 °C 1022.6 hPa NNE 0.6 km/h 8 km/h 97% 0 mm 79 W/m2
08:59 12.3 °C 11.8 °C 1022.9 hPa NNW 0.3 km/h 8 km/h 97% 0 mm 77 W/m2
09:04 12.4 °C 11.9 °C 1023.2 hPa NW 0.3 km/h 8 km/h 97% 0 mm 84 W/m2
09:09 12.4 °C 12 °C 1023.2 hPa NW 0.5 km/h 8 km/h 97% 0 mm 79 W/m2
09:14 12.5 °C 12.1 °C 1023.2 hPa NNW 0.6 km/h 8 km/h 97.5% 0 mm 62 W/m2
09:19 12.5 °C 12.1 °C 1023.2 hPa NW 1.1 km/h 14.5 km/h 97% 0 mm 62 W/m2
09:24 12.5 °C 12.1 °C 1023.2 hPa NNW 0.3 km/h 14.5 km/h 97.5% 0 mm 54 W/m2
09:29 12.5 °C 12.3 °C 1023.2 hPa NNW 0.8 km/h 14.5 km/h 98.4% 0 mm 72 W/m2
09:34 12.6 °C 12.1 °C 1023.2 hPa NE 0.2 km/h 14.5 km/h 97% 0 mm 104 W/m2
09:39 12.7 °C 12.2 °C 1023.2 hPa NE 0.6 km/h 6.4 km/h 97% 0 mm 118 W/m2
09:44 12.8 °C 12.3 °C 1023.2 hPa ENE 1 km/h 8 km/h 97% 0 mm 137 W/m2
09:49 12.8 °C 12.3 °C 1023.2 hPa ENE 1.4 km/h 11.3 km/h 97% 0 mm 153 W/m2
09:54 12.7 °C 12.3 °C 1023.2 hPa NE 1.8 km/h 11.3 km/h 97% 0 mm 165 W/m2
09:59 12.8 °C 12.3 °C 1023.6 hPa NNW 0.3 km/h 11.3 km/h 97% 0 mm 134 W/m2
10:04 12.8 °C 12.4 °C 1023.6 hPa East 1.4 km/h 11.3 km/h 97% 0 mm 109 W/m2
10:09 12.7 °C 12.3 °C 1023.6 hPa SSW 0.3 km/h 9.7 km/h 97% 0 mm 139 W/m2
10:14 12.8 °C 12.3 °C 1023.6 hPa NNE 1.1 km/h 9.7 km/h 97% 0 mm 163 W/m2
10:19 12.8 °C 12.4 °C 1023.6 hPa NNE 0.8 km/h 9.7 km/h 97% 0 mm 153 W/m2
10:24 12.9 °C 12.5 °C 1023.6 hPa NE 0.2 km/h 9.7 km/h 97% 0 mm 172 W/m2
10:29 13 °C 12.6 °C 1023.6 hPa NE 1.1 km/h 9.7 km/h 97% 0 mm 116 W/m2
10:34 13 °C 12.6 °C 1023.6 hPa ENE 1.8 km/h 9.7 km/h 97% 0 mm 167 W/m2
10:39 13 °C 12.6 °C 1023.6 hPa ENE 1.3 km/h 8 km/h 97% 0 mm 146 W/m2
10:44 13 °C 12.6 °C 1023.6 hPa Calm   8 km/h 97% 0 mm 120 W/m2
10:49 13.1 °C 12.7 °C 1023.6 hPa Calm   8 km/h 97% 0 mm 97 W/m2
10:54 13.3 °C 12.8 °C 1023.9 hPa Calm   8 km/h 97% 0 mm 163 W/m2
10:59 13.4 °C 13 °C 1023.9 hPa Calm   8 km/h 97% 0 mm 163 W/m2
11:04 13.6 °C 13.1 °C 1023.6 hPa ENE 0.3 km/h 8 km/h 97% 0 mm 148 W/m2
11:09 13.6 °C 13.2 °C 1023.9 hPa East 0.8 km/h 6.4 km/h 97% 0 mm 227 W/m2
11:14 13.5 °C 13.1 °C 1023.9 hPa ENE 3.2 km/h 16.1 km/h 97% 0 mm 253 W/m2
11:19 13.6 °C 13.1 °C 1023.6 hPa East 1 km/h 16.1 km/h 96.3% 0 mm 251 W/m2
11:24 13.8 °C 13.2 °C 1023.6 hPa ENE 1.6 km/h 16.1 km/h 96% 0 mm 171 W/m2
11:29 13.9 °C 13.2 °C 1023.9 hPa ENE 0.8 km/h 16.1 km/h 95.5% 0 mm 120 W/m2
11:34 14.1 °C 13.2 °C 1023.9 hPa NNW 0.5 km/h 16.1 km/h 95% 0 mm 121 W/m2
11:39 14.1 °C 13.3 °C 1023.9 hPa NNW 0.3 km/h 6.4 km/h 95% 0 mm 142 W/m2
11:44 14.3 °C 13.4 °C 1023.9 hPa NNW 1.3 km/h 9.7 km/h 94.7% 0 mm 135 W/m2
11:49 14.4 °C 13.4 °C 1023.9 hPa NNE 0.6 km/h 9.7 km/h 94% 0 mm 151 W/m2
11:54 14.5 °C 13.6 °C 1023.9 hPa NNW 1.1 km/h 11.3 km/h 94% 0 mm 134 W/m2
11:59 14.6 °C 13.6 °C 1023.9 hPa NW 0.6 km/h 11.3 km/h 93.6% 0 mm 158 W/m2
12:09 14.7 °C 13.6 °C 1023.9 hPa NNW 0.5 km/h 4.8 km/h 93% 0 mm 156 W/m2
12:14 14.8 °C 13.6 °C 1023.9 hPa NE 0.8 km/h 6.4 km/h 92.2% 0 mm 197 W/m2
12:19 14.9 °C 13.6 °C 1023.9 hPa NE 0.3 km/h 6.4 km/h 92% 0 mm 193 W/m2
12:24 15 °C 13.7 °C 1023.9 hPa NE 0.5 km/h 6.4 km/h 92% 0 mm 244 W/m2
12:29 15.1 °C 13.8 °C 1023.9 hPa ENE 0.5 km/h 6.4 km/h 91.6% 0 mm 264 W/m2
12:34 15.2 °C 13.8 °C 1023.9 hPa ENE 0.6 km/h 6.4 km/h 91% 0 mm 223 W/m2
12:39 15.3 °C 13.8 °C 1023.6 hPa NNE 0.2 km/h 6.4 km/h 90.3% 0 mm 221 W/m2
12:44 15.4 °C 13.8 °C 1023.6 hPa NE 1.3 km/h 6.4 km/h 89.7% 0 mm 214 W/m2
12:49 15.5 °C 13.7 °C 1023.6 hPa NNW 1 km/h 6.4 km/h 88.8% 0 mm 169 W/m2
12:54 15.6 °C 13.8 °C 1023.6 hPa NE 0.5 km/h 6.4 km/h 89.2% 0 mm 220 W/m2
12:59 15.7 °C 13.8 °C 1023.2 hPa ENE 1.1 km/h 8 km/h 88.9% 0 mm 225 W/m2
13:04 15.7 °C 13.6 °C 1023.2 hPa ENE 0.8 km/h 8 km/h 87.4% 0 mm 199 W/m2
13:09 15.7 °C 13.7 °C 1023.2 hPa North 0.8 km/h 6.4 km/h 87.7% 0 mm 172 W/m2
13:14 15.8 °C 13.7 °C 1023.6 hPa ENE 3.7 km/h 14.5 km/h 87.6% 0 mm 176 W/m2
13:19 15.7 °C 13.6 °C 1023.2 hPa ENE 0.2 km/h 14.5 km/h 87% 0 mm 179 W/m2
13:24 15.7 °C 13.6 °C 1023.2 hPa NE 2.1 km/h 14.5 km/h 87% 0 mm 195 W/m2
13:29 15.8 °C 13.8 °C 1023.2 hPa NNW 1.1 km/h 14.5 km/h 87.8% 0 mm 190 W/m2
13:34 15.9 °C 13.8 °C 1023.2 hPa NE 1 km/h 14.5 km/h 87.4% 0 mm 179 W/m2
13:39 16 °C 13.8 °C 1023.2 hPa ENE 1.3 km/h 6.4 km/h 87.1% 0 mm 171 W/m2
13:44 16 °C 13.6 °C 1023.2 hPa ENE 0.2 km/h 6.4 km/h 86% 0 mm 139 W/m2
13:49 16 °C 13.7 °C 1023.2 hPa ENE 0.6 km/h 6.4 km/h 86.2% 0 mm 171 W/m2
13:54 16.1 °C 13.8 °C 1023.2 hPa Calm   6.4 km/h 86.7% 0 mm 153 W/m2
13:59 16.1 °C 13.9 °C 1023.2 hPa NW 0.6 km/h 6.4 km/h 86.8% 0 mm 120 W/m2
14:04 16.2 °C 14.1 °C 1023.2 hPa North 0.6 km/h 6.4 km/h 87% 0 mm 98 W/m2
14:09 16.2 °C 13.9 °C 1023.2 hPa North 0.6 km/h 6.4 km/h 86.5% 0 mm 100 W/m2
14:14 16.2 °C 13.9 °C 1023.2 hPa North 0.8 km/h 8 km/h 86.8% 0 mm 100 W/m2
14:19 16.2 °C 13.8 °C 1023.6 hPa Calm   8 km/h 86% 0 mm 113 W/m2
14:24 16.2 °C 13.9 °C 1023.6 hPa Calm   8 km/h 86.5% 0 mm 114 W/m2
14:29 16.2 °C 14 °C 1023.6 hPa NNE 0.3 km/h 8 km/h 87% 0 mm 91 W/m2
14:34 16.2 °C 13.8 °C 1023.6 hPa Calm   8 km/h 86.2% 0 mm 102 W/m2
14:39 16.2 °C 14 °C 1023.6 hPa NNE 0.2 km/h 3.2 km/h 87% 0 mm 104 W/m2
14:44 16.2 °C 14 °C 1023.6 hPa NNE 0.5 km/h 6.4 km/h 87% 0 mm 125 W/m2
14:49 16.1 °C 13.8 °C 1023.6 hPa East 0.3 km/h 6.4 km/h 86.1% 0 mm 156 W/m2
14:54 16.1 °C 13.9 °C 1023.6 hPa Calm   6.4 km/h 86.5% 0 mm 141 W/m2
14:59 16.2 °C 14 °C 1023.2 hPa ENE 1.8 km/h 11.3 km/h 87% 0 mm 91 W/m2
15:04 16.2 °C 14 °C 1023.2 hPa North 1.1 km/h 11.3 km/h 87% 0 mm 90 W/m2
15:09 16.2 °C 13.9 °C 1023.6 hPa ENE 0.3 km/h 8 km/h 86.5% 0 mm 111 W/m2
15:14 16.2 °C 14 °C 1023.6 hPa ENE 0.2 km/h 8 km/h 87% 0 mm 134 W/m2
15:19 16.2 °C 14 °C 1023.6 hPa ENE 0.2 km/h 8 km/h 87% 0 mm 116 W/m2
15:24 16.2 °C 14 °C 1023.6 hPa NNW 3.4 km/h 16.1 km/h 87% 0 mm 111 W/m2
15:29 16.1 °C 13.8 °C 1023.6 hPa NW 1.3 km/h 16.1 km/h 86.4% 0 mm 121 W/m2
15:34 16.2 °C 14 °C 1023.6 hPa Calm   16.1 km/h 87% 0 mm 111 W/m2
15:39 16.2 °C 14 °C 1023.6 hPa NW 0.2 km/h 6.4 km/h 87% 0 mm 91 W/m2
15:44 16.2 °C 14 °C 1023.6 hPa NW 0.5 km/h 6.4 km/h 87% 0 mm 97 W/m2
15:49 16.2 °C 14.1 °C 1023.6 hPa NNW 0.5 km/h 6.4 km/h 87% 0 mm 90 W/m2
15:54 16.2 °C 14.1 °C 1023.6 hPa NNW 1.1 km/h 8 km/h 87.1% 0 mm 91 W/m2
15:59 16.3 °C 14.2 °C 1023.6 hPa Calm   8 km/h 87.7% 0 mm 90 W/m2
16:00 16.3 °C 14.3 °C 1023.6 hPa Calm   8 km/h 88% 0 mm 83 W/m2
16:09 16.3 °C 14.1 °C 1023.6 hPa North 3.1 km/h 8 km/h 87% 0 mm 97 W/m2
16:14 16.3 °C 14.1 °C 1023.6 hPa Calm   8 km/h 87% 0 mm 102 W/m2
16:19 16.3 °C 14.1 °C 1023.6 hPa NNW 0.8 km/h 8 km/h 87% 0 mm 95 W/m2
16:24 16.3 °C 14.1 °C 1023.6 hPa NNW 1.3 km/h 8 km/h 87% 0 mm 86 W/m2
16:29 16.3 °C 14.2 °C 1023.6 hPa NNW 0.2 km/h 8 km/h 87% 0 mm 90 W/m2
16:34 16.3 °C 14.2 °C 1023.6 hPa NNW 0.8 km/h 8 km/h 87% 0 mm 83 W/m2
16:39 16.3 °C 14.2 °C 1023.6 hPa Calm   8 km/h 87% 0 mm 70 W/m2
16:44 16.3 °C 14.1 °C 1023.6 hPa NNW 0.2 km/h 8 km/h 86.5% 0 mm 63 W/m2
16:49 16.3 °C 14.1 °C 1023.6 hPa North 0.2 km/h 8 km/h 87% 0 mm 44 W/m2
16:54 16.2 °C 13.9 °C 1023.9 hPa North 1.1 km/h 9.7 km/h 86.4% 0 mm 51 W/m2
16:59 16.2 °C 13.8 °C 1023.9 hPa NNE 0.2 km/h 9.7 km/h 86% 0 mm 51 W/m2
17:04 16.1 °C 13.8 °C 1023.9 hPa Calm   9.7 km/h 86.2% 0 mm 42 W/m2
17:09 16.1 °C 13.8 °C 1023.9 hPa Calm     86.3% 0 mm 39 W/m2
17:14 16.1 °C 13.9 °C 1023.9 hPa Calm     87% 0 mm 30 W/m2
17:19 16.1 °C 13.9 °C 1023.9 hPa NNE 0.2 km/h 4.8 km/h 87% 0 mm 28 W/m2
17:24 16 °C 13.8 °C 1023.9 hPa Calm   4.8 km/h 87% 0 mm 28 W/m2
17:25 15.9 °C 13.8 °C 1023.9 hPa NNE 1.6 km/h 4.8 km/h 87% 0 mm 25 W/m2
17:30 15.9 °C 13.8 °C 1023.9 hPa Calm   4.8 km/h 87% 0 mm 29 W/m2
18:00 15.8 °C 13.8 °C 1024.3 hPa Calm   3.2 km/h 88% 0 mm 13 W/m2
18:30 15.7 °C 13.9 °C 1024.3 hPa Calm     89% 0 mm 3 W/m2
19:30 15.2 °C 13.8 °C 1025.3 hPa Calm   6.4 km/h 91% 0 mm 0 W/m2
20:04 15.1 °C 13.6 °C 1025.3 hPa Calm     91% 0 mm 0 W/m2
20:09 15.1 °C 13.6 °C 1025.6 hPa Calm     91% 0 mm 0 W/m2
20:14 15.1 °C 13.6 °C 1025.3 hPa Calm     91% 0 mm 0 W/m2
20:19 15.1 °C 13.6 °C 1025.6 hPa Calm   4.8 km/h 91% 0 mm 0 W/m2
20:24 15.1 °C 13.6 °C 1025.6 hPa North 0.8 km/h 6.4 km/h 91% 0 mm 0 W/m2
20:29 15.1 °C 13.6 °C 1025.6 hPa North 0.2 km/h 6.4 km/h 91% 0 mm 0 W/m2
20:34 15.1 °C 13.6 °C 1025.6 hPa Calm   6.4 km/h 91% 0 mm 0 W/m2
20:39 15 °C 13.6 °C 1025.6 hPa North 0.2 km/h 4.8 km/h 91.3% 0 mm 0 W/m2
20:44 15 °C 13.7 °C 1025.6 hPa North 0.2 km/h 6.4 km/h 92% 0 mm 0 W/m2
20:49 15 °C 13.7 °C 1026 hPa Calm   6.4 km/h 92% 0 mm 0 W/m2
20:54 14.9 °C 13.7 °C 1026 hPa Calm   6.4 km/h 92% 0 mm 0 W/m2
20:59 14.9 °C 13.7 °C 1026 hPa Calm   6.4 km/h 92% 0 mm 0 W/m2
21:04 14.9 °C 13.7 °C 1026 hPa North 0.2 km/h 6.4 km/h 92% 0 mm 0 W/m2
21:09 14.9 °C 13.7 °C 1026 hPa Calm   3.2 km/h 92% 0 mm 0 W/m2
21:14 14.9 °C 13.7 °C 1026 hPa North 0.2 km/h 3.2 km/h 92% 0 mm 0 W/m2
21:19 14.9 °C 13.6 °C 1026 hPa Calm   3.2 km/h 92% 0 mm 0 W/m2
21:24 14.9 °C 13.6 °C 1026 hPa Calm   3.2 km/h 92% 0 mm 0 W/m2
21:29 14.9 °C 13.6 °C 1026 hPa North 0.2 km/h 6.4 km/h 92% 0 mm 0 W/m2
21:34 14.8 °C 13.6 °C 1026 hPa North 0.6 km/h 6.4 km/h 92% 0 mm 0 W/m2
21:39 14.8 °C 13.6 °C 1026 hPa North 0.5 km/h 6.4 km/h 92% 0 mm 0 W/m2
21:44 14.8 °C 13.6 °C 1026 hPa Calm   6.4 km/h 92% 0 mm 0 W/m2
21:49 14.8 °C 13.5 °C 1026 hPa Calm   6.4 km/h 92% 0 mm 0 W/m2
21:54 14.8 °C 13.6 °C 1026 hPa North 0.2 km/h 6.4 km/h 92.5% 0 mm 0 W/m2
21:59 14.8 °C 13.7 °C 1026 hPa Calm   6.4 km/h 93% 0 mm 0 W/m2
22:04 14.8 °C 13.7 °C 1026 hPa Calm   6.4 km/h 93% 0 mm 0 W/m2
22:09 14.8 °C 13.7 °C 1026 hPa Calm     93% 0 mm 0 W/m2
22:14 14.7 °C 13.6 °C 1026.3 hPa Calm     93% 0 mm 0 W/m2
22:19 14.7 °C 13.6 °C 1026.3 hPa North 0.2 km/h 3.2 km/h 93% 0 mm 0 W/m2
22:24 14.7 °C 13.6 °C 1026.3 hPa Calm   3.2 km/h 93% 0 mm 0 W/m2
22:29 14.7 °C 13.6 °C 1026.3 hPa Calm   3.2 km/h 93% 0 mm 0 W/m2
22:34 14.7 °C 13.6 °C 1026.3 hPa Calm   3.2 km/h 93% 0 mm 0 W/m2
22:39 14.7 °C 13.6 °C 1026.6 hPa Calm     93% 0 mm 0 W/m2
22:44 14.6 °C 13.4 °C 1026.6 hPa Calm     92.6% 0 mm 0 W/m2
22:49 14.6 °C 13.3 °C 1026.6 hPa Calm   1.6 km/h 92% 0 mm 0 W/m2
22:54 14.5 °C 13.2 °C 1026.6 hPa Calm   1.6 km/h 92% 0 mm 0 W/m2
22:59 14.4 °C 13.2 °C 1026.6 hPa Calm   1.6 km/h 92.1% 0 mm 0 W/m2
23:04 14.4 °C 13.3 °C 1026.6 hPa Calm   1.6 km/h 93% 0 mm 0 W/m2
23:09 14.3 °C 13.2 °C 1026.6 hPa Calm     93% 0 mm 0 W/m2
23:14 14.3 °C 13.2 °C 1026.6 hPa Calm     93% 0 mm 0 W/m2
23:19 14.3 °C 13.2 °C 1026.6 hPa Calm     93% 0 mm 0 W/m2
23:24 14.2 °C 13.1 °C 1026.6 hPa Calm     93% 0 mm 0 W/m2
23:29 14.2 °C 13.1 °C 1026.6 hPa Calm     93% 0 mm 0 W/m2
23:34 14.2 °C 13.1 °C 1026.6 hPa Calm     93% 0 mm 0 W/m2
23:39 14.2 °C 13.1 °C 1026.6 hPa Calm     93% 0 mm 0 W/m2
23:44 14.2 °C 13.1 °C 1026.6 hPa Calm     93% 0 mm 0 W/m2
23:49 14.2 °C 13.1 °C 1026.6 hPa Calm     93% 0 mm 0 W/m2
23:54 14.2 °C 13.2 °C 1027 hPa Calm     93.7% 0 mm 0 W/m2
23:59 14.2 °C 13.2 °C 1027 hPa Calm     94% 0 mm 0 W/m2
Hartford County Weather
Compliments of Weather Underground - 2 mb